weather.gov     
National Weather Service

Regional Weather Roundup
NWS Homepage
This page is being discontinued on March 12, 2014.
The same data is available at this site. Please update your bookmarks.
Thank you, and we apologize for the inconvenience.
Please send an email to SR-SRH.Webmaster@noaa.gov with any concerns.


Current Version
Previous Version:    01  02  03  04  05  06  07  08  09  10  11  12  13  14  15  16  17  18  19  20  21  22  23  24  25  26  27  28  29  30  
   31  32  33  34  35  36  37  38  39  40  41  42  43  44  45  46  47  48  49  50  51  52  53  54  
[Printable]
931
ASUS45 KABQ 300310
RWRNM
WEATHER ROUNDUP FOR NEW MEXICO
NATIONAL WEATHER SERVICE ALBUQUERQUE NM
900 PM MDT TUE JUL 29 2014

NOTE: "FAIR" MEANS FEW OR NO CLOUDS BELOW 12,000 FEET AGL WITH NO
       SIGNIFICANT WEATHER OR OBSTRUCTIONS TO VISION.

      THIS PRODUCT IS RELEASED AS TWO VERSIONS.  ONE VERSION NEAR
      THE TOP OF THE HOUR CONTAINING PRELIMINARY DATA FROM ALBUQUERQUE
      AND OTHER STATIONS.  A FINAL VERSION WITH ADDITIONAL DATA IS
      ISSUED ABOUT 10 MINUTES AFTER THE HOUR.

NMZ501-503-504-510>518-300400-
NORTHWEST PLATEAU/NORTHCENTRAL MOUNTAINS

CITY           SKY/WX    TMP DP  RH WIND       PRES   REMARKS
FARMINGTON     CLEAR     76  48  37 N7        30.14R
LOS ALAMOS     LGT RAIN  64  56  75 S7        30.32R
SANTA FE       CLOUDY    65  58  78 NW3       30.25S
TAOS             N/A     59  54  82 N7        30.33R THUNDER
ANGEL FIRE     LGT RAIN  56  54  91 SW3       30.41S

$$
NMZ402-403-502-505>509-300400-
WESTCENTRAL MOUNTAINS/SOUTHWEST MOUNTAINS

CITY           SKY/WX    TMP DP  RH WIND       PRES   REMARKS
GALLUP         MOCLDY    74  53  48 CALM      30.24R
SILVER CITY    MOCLDY    68  63  83 N7        30.22R

$$
NMZ407-409-411-412-300400-
SOUTHERN DESERTS

CITY           SKY/WX    TMP DP  RH WIND       PRES   REMARKS
LORDSBURG      MOCLDY    82  54  36 SE8       30.11R
DEMING         CLOUDY    76  65  68 W9        30.11R
LAS CRUCES     CLOUDY    77  60  55 N3        30.14R
HOLLOMAN AFB   CLOUDY    79  68  69 NW6       30.11R
ALAMOGORDO     CLOUDY    81  64  57 CALM      30.13R
T OR C         CLOUDY    72  63  73 CALM      30.15R

$$
NMZ519>523-300400-
CENTRAL VALLEYS/CENTRAL HIGHLANDS

CITY           SKY/WX    TMP DP  RH WIND       PRES   REMARKS
ALBUQUERQUE    CLOUDY    72  64  76 SE7       30.20R
DOUBLE EAGLE   CLEAR     70  57  64 S9        30.22R
MORIARTY ARPT  FAIR      63  57  81 S8        30.28R
CLINES CORNERS CLOUDY    64  57  78 SW9       30.31R
BELEN          FAIR      67  62  84 SE10      30.18S
SOCORRO        FAIR      74  59  59 E9        30.19R

$$
NMZ524>526-539-540-300400-
SOUTHCENTRAL MOUNTAINS

CITY           SKY/WX    TMP DP  RH WIND       PRES   REMARKS
RUIDOSO        CLOUDY    64  57  77 S7        30.34R

$$
NMZ527>531-300400-
NORTHEAST HIGHLANDS/NORTHEAST PLAINS

CITY           SKY/WX    TMP DP  RH WIND       PRES   REMARKS
LAS VEGAS      CLOUDY    63  60  90 S13       30.29R
RATON          LGT RAIN  66  62  87 CALM      30.24R
CLAYTON        CLOUDY    73  61  65 S13       30.16R

$$
NMZ532>537-300400-
EASTCENTRAL PLAINS

CITY           SKY/WX    TMP DP  RH WIND       PRES   REMARKS
TUCUMCARI      CLOUDY    75  64  68 SW10      30.13R
CANNON AFB     NOT AVBL
CLOVIS AIRPORT NOT AVBL

$$
NMZ028-029-538-300400-
SOUTHEAST PLAINS

CITY           SKY/WX    TMP DP  RH WIND       PRES   REMARKS
ROSWELL        CLOUDY    77  68  73 CALM      30.08S
ARTESIA        MOCLDY    81  64  57 N8        30.08R
CARLSBAD       MOCLDY    89  51  27 SE6       30.04R
HOBBS          MOCLDY    82  61  47 E14G21    30.11R


$$




U.S. Dept. of Commerce
NOAA National Weather Service
1325 East West Highway
Silver Spring, MD 20910
E-mail: w-nws.webmaster@noaa.gov
Page last modified: May 16, 2007
NATIONAL WEATHER SERVICE: for Safety, for Work, for Fun - FOR LIFE